Volver al catálogo

TITAN 4B CENTAUR R/B

ActivoGEO
NORAD 25337·ROCKET BODY·🇺🇸 United States

Lanzado May 9, 1998 desde Cape Canaveral Space Force Station

Loading…

TLE

ActualizadoSource: Space-Track

Época: Sep 13, 2026, 14:03 UTC

1 25337U 98029B   26256.58554253 -.00000310  00000-0  00000+0 0  9990
2 25337   7.5698 342.2869 0046925 180.4621 179.5299  1.00272951 26736

Sigue TITAN 4B CENTAUR R/B en tiempo real con AllMySat

Download on the App Store